Location: Sternwarte ZA, Rosenfeld-Brittheim
(48.2889°N, 8.6789°E)
Time: 19:41:37
(UTC+01:00)

ISS - Pass Details

Date: 09 December 2017
Orbit: 402 x 407 km, 51.6° (Epoch: 11 December)

Event Time Altitude Azimuth Distance (km) Brightness Sun altitude
Rises 18:17:24 0° 288° (WNW) 2,332 1.0 -16.8°
Reaches altitude 10° 18:19:31 10° 293° (WNW) 1,470 -0.3 -17.1°
Maximum altitude 18:22:46 54° 12° (NNE) 503 -3.6 -17.7°
Enters shadow 18:23:03 51° 35° (NE) 518 -3.7 -17.7°
